Darstellungsparameter: Aktuell verwendete Einstellungen:
Skalierung der Graphiken ... ?
xyx+y,   Skalierungsfaktor:      Skalierung: Modus: x, Faktor: 1
Darstellungszeitraum ... ?
Vom - - bis: - -   Zeitraum: 24.07.2021 - 24.07.2021
Min/Max/Avg-Anzeige ... ?
Zeige MMA aktuell
Zeige MMA Monat
Zeige MMA alles
Zeige --A aktuell
Zeige --A Monat
Zeige --A alles
Keine MMA-Anzeige
MMA:
Average (ber die Originaldaten)
MMA-Basis: 24.07.2021 - 24.07.2021
Quicknavigation für Darstellung... ?
Tage:      1T, 2T, 3T, 5T -1T -2T -3T -5T +1T +2T +3T +5T
Wochen: 1W, 2W, 3W -1W -2W -3W +1W +2W +3W
Monate: 1M, 3M, 6M -1M -3M -6M +1M +3M +6M
Jahre:    1J, 3J, 5J, 10J -1J -3J -5J -10J +1J +3J +5J +10J
Nutze für die Darstellung ... ?
Originaldaten oder Mittelwerte auf ...
Stundenbasis Tagesbasis Wochenbasis
Monatsbasis Jahresbasis      Datenbasis: Original-Daten
Darstellen als:
Statistik (Auto) Statistik J:M      Darstellung:

Der gewünschte Datumsbereich war nicht gültig/verfügbar und wurde korrigiert....
Das angegebene Enddatum (28.08.2025 23:59:59) liegt in der Zukunft.
Das angegebene Startdatum (28.08.2025 00:00:00) liegt in der Zukunft.


Zur Graphik,    zurück zur Übersicht aller Sensoren.
 
Tabellarische Datenbersicht: ?
 
Sensor: Nr:Datum:Temp:Abs-Feuchte:Windchill:Wind:
Aussen-T/F 1 24-07-2021 02:00:00 15.2 C 11.94 g/m*3 15.2 C 0 km/h
2 24-07-2021 02:05:00 15.2 C 11.94 g/m*3 15.2 C 0 km/h
3 24-07-2021 02:10:00 15.2 C 11.94 g/m*3 15.2 C 0 km/h
4 24-07-2021 02:15:00 15.1 C 11.87 g/m*3 15.1 C 0 km/h
5 24-07-2021 02:20:00 15.1 C 11.87 g/m*3 15.1 C 0 km/h
6 24-07-2021 02:25:00 15.1 C 11.87 g/m*3 15.1 C 0 km/h
7 24-07-2021 02:30:00 15 C 11.8 g/m*3 15 C 0 km/h
8 24-07-2021 02:35:00 14.9 C 11.85 g/m*3 14.9 C 0 km/h
9 24-07-2021 02:40:00 14.9 C 11.85 g/m*3 14.9 C 0 km/h
10 24-07-2021 02:45:00 14.9 C 11.85 g/m*3 14.9 C 0 km/h
11 24-07-2021 02:50:00 14.8 C 11.78 g/m*3 14.8 C 0 km/h
12 24-07-2021 02:55:00 14.8 C 11.78 g/m*3 14.8 C 0 km/h
13 24-07-2021 03:00:00 14.7 C 11.71 g/m*3 14.7 C 0 km/h
14 24-07-2021 03:05:00 14.7 C 11.71 g/m*3 14.7 C 0 km/h
15 24-07-2021 03:10:00 14.6 C 11.64 g/m*3 14.6 C 0 km/h
16 24-07-2021 03:15:00 14.6 C 11.64 g/m*3 14.6 C 0 km/h
17 24-07-2021 03:20:00 14.6 C 11.64 g/m*3 14.6 C 0 km/h
18 24-07-2021 03:25:00 14.5 C 11.57 g/m*3 14.5 C 0 km/h
19 24-07-2021 03:30:00 14.4 C 11.62 g/m*3 14.4 C 0 km/h
20 24-07-2021 03:35:00 14.4 C 11.62 g/m*3 14.4 C 0 km/h
21 24-07-2021 03:40:00 14.4 C 11.62 g/m*3 14.4 C 0 km/h
22 24-07-2021 03:45:00 14.4 C 11.62 g/m*3 14.4 C 0 km/h
23 24-07-2021 03:50:00 14.3 C 11.55 g/m*3 14.3 C 0 km/h
24 24-07-2021 03:55:00 14.3 C 11.55 g/m*3 14.3 C 0 km/h
25 24-07-2021 04:00:00 14.3 C 11.55 g/m*3 14.3 C 0 km/h
Sensor: Nr:Datum:Temp:Abs-Feuchte:Windchill:Wind:
Aussen-T/F 26 24-07-2021 04:05:00 14.3 C 11.55 g/m*3 14.3 C 0 km/h
27 24-07-2021 04:10:00 14.2 C 11.48 g/m*3 14.2 C 0 km/h
28 24-07-2021 04:15:00 14.2 C 11.48 g/m*3 14.2 C 0 km/h
29 24-07-2021 04:20:00 14.2 C 11.48 g/m*3 14.2 C 0 km/h
30 24-07-2021 04:25:00 14.2 C 11.48 g/m*3 14.2 C 0 km/h
31 24-07-2021 04:30:00 14.2 C 11.48 g/m*3 14.2 C 0 km/h
32 24-07-2021 04:35:00 14.1 C 11.41 g/m*3 14.1 C 0 km/h
33 24-07-2021 04:40:00 14.1 C 11.41 g/m*3 14.1 C 0 km/h
34 24-07-2021 04:45:00 14.2 C 11.6 g/m*3 14.2 C 0 km/h
35 24-07-2021 04:50:00 14.2 C 11.6 g/m*3 14.2 C 0 km/h
36 24-07-2021 04:55:00 14.2 C 11.6 g/m*3 14.2 C 0 km/h
37 24-07-2021 05:00:00 14.2 C 11.6 g/m*3 14.2 C 0 km/h
38 24-07-2021 05:05:00 14.2 C 11.6 g/m*3 14.2 C 1.6 km/h
39 24-07-2021 05:10:00 14.3 C 11.67 g/m*3 14.3 C 0 km/h
40 24-07-2021 05:15:00 14.3 C 11.67 g/m*3 14.3 C 0 km/h
41 24-07-2021 05:20:00 14.3 C 11.67 g/m*3 14.3 C 0 km/h
42 24-07-2021 05:25:00 14.3 C 11.67 g/m*3 14.3 C 0 km/h
43 24-07-2021 05:30:00 14.3 C 11.67 g/m*3 14.3 C 0 km/h
44 24-07-2021 05:35:00 14.3 C 11.67 g/m*3 14.3 C 0 km/h
45 24-07-2021 05:40:00 14.3 C 11.67 g/m*3 14.3 C 0 km/h
46 24-07-2021 05:45:00 14.3 C 11.67 g/m*3 14.3 C 0 km/h
47 24-07-2021 05:50:00 14.4 C 11.74 g/m*3 14.4 C 0 km/h
48 24-07-2021 05:55:00 14.5 C 11.94 g/m*3 14.5 C 3.2 km/h
49 24-07-2021 06:00:00 14.6 C 12.01 g/m*3 14.6 C 0 km/h
50 24-07-2021 06:05:00 14.7 C 12.09 g/m*3 14.7 C 0 km/h
Sensor: Nr:Datum:Temp:Abs-Feuchte:Windchill:Wind:
Aussen-T/F 51 24-07-2021 06:10:00 14.7 C 12.09 g/m*3 14.7 C 0 km/h
52 24-07-2021 06:15:00 14.8 C 12.16 g/m*3 14.8 C 0 km/h
53 24-07-2021 06:20:00 14.9 C 12.24 g/m*3 14.9 C 1.6 km/h
54 24-07-2021 06:25:00 14.9 C 12.24 g/m*3 14.9 C 0 km/h
55 24-07-2021 06:30:00 15 C 12.31 g/m*3 15 C 0 km/h
56 24-07-2021 06:35:00 15.1 C 12.39 g/m*3 15.1 C 1.6 km/h
57 24-07-2021 06:40:00 15.1 C 12.39 g/m*3 15.1 C 1.6 km/h
58 24-07-2021 06:45:00 15.2 C 12.46 g/m*3 15.2 C 0 km/h
59 24-07-2021 06:50:00 15.2 C 12.46 g/m*3 15.2 C 0 km/h
60 24-07-2021 06:55:00 15.3 C 12.54 g/m*3 15.3 C 0 km/h
61 24-07-2021 07:00:00 15.3 C 12.54 g/m*3 15.3 C 1.6 km/h
62 24-07-2021 07:05:00 15.3 C 12.54 g/m*3 15.3 C 0 km/h
63 24-07-2021 07:10:00 15.4 C 12.61 g/m*3 15.4 C 0 km/h
64 24-07-2021 07:15:00 15.4 C 12.61 g/m*3 15.4 C 0 km/h
65 24-07-2021 07:20:00 15.6 C 12.77 g/m*3 15.6 C 0 km/h
66 24-07-2021 07:25:00 15.7 C 12.84 g/m*3 15.7 C 0 km/h
67 24-07-2021 07:30:00 15.8 C 12.92 g/m*3 15.8 C 0 km/h
68 24-07-2021 07:35:00 15.9 C 13 g/m*3 15.9 C 0 km/h
69 24-07-2021 07:40:00 16.1 C 13.16 g/m*3 16.1 C 0 km/h
70 24-07-2021 07:45:00 16.3 C 13.32 g/m*3 16.3 C 0 km/h
71 24-07-2021 07:50:00 16.5 C 13.48 g/m*3 16.5 C 0 km/h
72 24-07-2021 07:55:00 16.7 C 13.64 g/m*3 16.7 C 1.6 km/h
73 24-07-2021 08:00:00 16.7 C 13.64 g/m*3 16.7 C 0 km/h
74 24-07-2021 08:05:00 16.8 C 13.73 g/m*3 16.8 C 0 km/h
75 24-07-2021 08:10:00 16.9 C 13.81 g/m*3 16.9 C 0 km/h
Sensor: Nr:Datum:Temp:Abs-Feuchte:Windchill:Wind:
Aussen-T/F 76 24-07-2021 08:15:00 17.1 C 13.97 g/m*3 17.1 C 0 km/h
77 24-07-2021 08:20:00 17.2 C 14.06 g/m*3 17.2 C 0 km/h
78 24-07-2021 08:25:00 17.3 C 14.14 g/m*3 17.3 C 1.6 km/h
79 24-07-2021 08:30:00 17.3 C 13.85 g/m*3 17.3 C 1.6 km/h
80 24-07-2021 08:35:00 17.4 C 13.93 g/m*3 17.4 C 0 km/h
81 24-07-2021 08:40:00 17.5 C 14.01 g/m*3 17.5 C 0 km/h
82 24-07-2021 08:45:00 17.6 C 14.1 g/m*3 17.6 C 0 km/h
83 24-07-2021 08:50:00 17.7 C 14.18 g/m*3 17.7 C 0 km/h
84 24-07-2021 08:55:00 17.7 C 14.03 g/m*3 17.7 C 0 km/h
85 24-07-2021 09:00:00 17.8 C 13.81 g/m*3 17.8 C 0 km/h
86 24-07-2021 09:05:00 18 C 13.98 g/m*3 18 C 1.6 km/h
87 24-07-2021 09:10:00 18.2 C 13.83 g/m*3 18.2 C 1.6 km/h
88 24-07-2021 09:15:00 18.4 C 13.84 g/m*3 18.4 C 0 km/h
89 24-07-2021 09:20:00 18.6 C 13.85 g/m*3 18.6 C 0 km/h
90 24-07-2021 09:25:00 18.8 C 14.01 g/m*3 18.8 C 1.6 km/h
91 24-07-2021 09:30:00 18.9 C 13.93 g/m*3 18.9 C 0 km/h
92 24-07-2021 09:35:00 19.2 C 14.02 g/m*3 19.2 C 3.2 km/h
93 24-07-2021 09:40:00 19.3 C 13.93 g/m*3 19.3 C 1.6 km/h
94 24-07-2021 09:45:00 19.5 C 13.93 g/m*3 19.5 C 1.6 km/h
95 24-07-2021 09:50:00 19.6 C 14.01 g/m*3 19.6 C 1.6 km/h
96 24-07-2021 09:55:00 19.8 C 14.18 g/m*3 19.8 C 0 km/h
97 24-07-2021 10:00:00 19.9 C 14.26 g/m*3 19.9 C 1.6 km/h
98 24-07-2021 10:05:00 20.1 C 14.78 g/m*3 20.1 C 0 km/h
99 24-07-2021 10:10:00 20.3 C 14.6 g/m*3 20.3 C 0 km/h
100 24-07-2021 10:15:00 20.4 C 14.86 g/m*3 20.4 C 0 km/h
Sensor: Nr:Datum:Temp:Abs-Feuchte:Windchill:Wind:
Aussen-T/F 101 24-07-2021 10:20:00 20.6 C 15.03 g/m*3 20.6 C 1.6 km/h
102 24-07-2021 10:25:00 20.8 C 15.39 g/m*3 20.8 C 0 km/h
103 24-07-2021 10:30:00 20.9 C 15.48 g/m*3 20.9 C 0 km/h
104 24-07-2021 10:35:00 21.1 C 15.29 g/m*3 21.1 C 3.2 km/h
105 24-07-2021 10:40:00 21.3 C 15.66 g/m*3 21.3 C 0 km/h
106 24-07-2021 10:45:00 21.4 C 15 g/m*3 21.4 C 3.2 km/h
107 24-07-2021 10:50:00 21.6 C 15.74 g/m*3 21.6 C 0 km/h
108 24-07-2021 10:55:00 21.7 C 16.21 g/m*3 21.7 C 0 km/h
109 24-07-2021 11:00:00 21.6 C 16.31 g/m*3 21.6 C 6.4 km/h
110 24-07-2021 11:05:00 21.3 C 16.03 g/m*3 21.3 C 6.4 km/h
111 24-07-2021 11:10:00 20.8 C 15.75 g/m*3 20.8 C 8.1 km/h
112 24-07-2021 11:15:00 20.5 C 15.66 g/m*3 20.5 C 6.4 km/h
113 24-07-2021 11:20:00 20.2 C 15.56 g/m*3 20.2 C 8.1 km/h
114 24-07-2021 11:25:00 19.9 C 15.46 g/m*3 19.9 C 8.1 km/h
115 24-07-2021 11:30:00 19.7 C 15.28 g/m*3 19.7 C 8.1 km/h
116 24-07-2021 11:35:00 19.6 C 15.36 g/m*3 19.6 C 9.7 km/h
117 24-07-2021 11:40:00 19.4 C 15.18 g/m*3 19.4 C 6.4 km/h
118 24-07-2021 11:45:00 19.3 C 15.26 g/m*3 19.3 C 6.4 km/h
119 24-07-2021 11:50:00 19.2 C 15.17 g/m*3 19.2 C 6.4 km/h
120 24-07-2021 11:55:00 19.2 C 15.34 g/m*3 19.2 C 4.8 km/h
121 24-07-2021 12:00:00 19.1 C 15.25 g/m*3 19.1 C 3.2 km/h
122 24-07-2021 12:05:00 19.1 C 15.25 g/m*3 19.1 C 4.8 km/h
123 24-07-2021 12:10:00 19.1 C 15.25 g/m*3 19.1 C 3.2 km/h
124 24-07-2021 12:15:00 19 C 15.16 g/m*3 19 C 6.4 km/h
125 24-07-2021 12:20:00 18.9 C 15.23 g/m*3 18.9 C 6.4 km/h
Sensor: Nr:Datum:Temp:Abs-Feuchte:Windchill:Wind:
Aussen-T/F 126 24-07-2021 12:25:00 18.9 C 15.23 g/m*3 18.9 C 4.8 km/h
127 24-07-2021 12:30:00 18.9 C 15.23 g/m*3 18.9 C 4.8 km/h
128 24-07-2021 12:35:00 18.9 C 15.23 g/m*3 18.9 C 4.8 km/h
129 24-07-2021 12:40:00 18.9 C 15.39 g/m*3 18.9 C 3.2 km/h
130 24-07-2021 12:45:00 18.9 C 15.39 g/m*3 18.9 C 0 km/h
131 24-07-2021 12:50:00 19 C 15.48 g/m*3 19 C 0 km/h
132 24-07-2021 12:55:00 19.2 C 15.66 g/m*3 19.2 C 0 km/h
133 24-07-2021 13:00:00 19.3 C 15.76 g/m*3 19.3 C 0 km/h
134 24-07-2021 13:05:00 19.6 C 16.21 g/m*3 19.6 C 0 km/h
135 24-07-2021 13:10:00 19.8 C 16.4 g/m*3 19.8 C 0 km/h
136 24-07-2021 13:15:00 19.9 C 16.49 g/m*3 19.9 C 1.6 km/h
137 24-07-2021 13:20:00 20.2 C 16.79 g/m*3 20.2 C 0 km/h
138 24-07-2021 13:25:00 20.3 C 16.88 g/m*3 20.3 C 1.6 km/h
139 24-07-2021 13:30:00 20.3 C 16.88 g/m*3 20.3 C 0 km/h
140 24-07-2021 13:35:00 20.2 C 16.61 g/m*3 20.2 C 0 km/h

Legende:
   Min
   Max


Maximal/Minimal-Werte vom 24.07.2021 - 24.07.2021

Sensor Min Max Avg
Temp
(Aussen-T/F)
14.1 °C
24-07-2021  04:35:00
21.7 °C
24-07-2021  10:55:00
16.98 °C
Abs-Feuchte
(Aussen-T/F)
11.41 g/m*3
24-07-2021  04:35:00
16.88 g/m*3
24-07-2021  13:25:00
13.35 g/m*3
Windchill
(Aussen-T/F)
14.1 C
24-07-2021  04:35:00
21.7 C
24-07-2021  10:55:00
16.86 C

Die Daten stammen von einer Davis Vantage Pro 2 Wetter-Station und werden unter Linux mit der Software wview2wettercgi und aufbereitet. Alle Angaben erfolgen ohne Gewähr für ihre Vollständigkeit oder Richtigkeit.
Kontakt: Rainer Krienke krienke@uni-koblenz.de . Meine Webseiten an der Uni Koblenz oder privat.
Version: $Revision: 0.78 $